Location: Larrial
(48.2758°N, 4.5331°W)
Time: 21:36:52
(UTC+00:00)

Cosmos 2366 rocket - Pass Details

Date: 09 April 2020
Orbit: 956 x 996 km, 82.9° (Epoch: 03 June)

Event Time Altitude Azimuth Distance (km) Brightness Sun altitude
Rises 21:20:38 0° 348° (NNW) 3,648 7.8 -21.4°
Reaches altitude 10° 21:23:08 10° 346° (NNW) 2,698 7.1 -21.7°
Maximum altitude 21:29:14 67° 266° (W) 1,038 4.2 -22.4°
Enters shadow 21:32:51 26° 191° (S) 1,806 5.1 -22.9°
